Info for pilots

Image

Airfield Info:

EBUL
N51 08.7 - E003 28.6
ELEV 95' / 29m
RWY 07 / 25
799m * 45m (CIV) - 2980m (MIL)
Ursel Radio 135.130
Tel Aero Club Brugge : +32(0)9 374 25 75
Tel Vliegclub Ursel : +32(0)9 374 12 90

Operational Hours
FRI: 14h00LT - SS+30 MIN
SAT, SUN and HOL: TKOF and LDG: 10h00LT - SS+30 MIN
After 20h00LT to SS+30 MIN: only LDG allowed (PN)

Local Traffic Regulations
The use of the AD is subject to PPR from the OPR;
AD given in concession to the CIV club outside MIL ACT;
Solo training flights can only be performed after two reconnaissance flights with instructor. The solo training flight must be performed within six weeks after the first reconnaissance flight;
Jet aircraft operations not allowed.

Obstacles:
trees between 10M AGL and 22M AGL, caution when crosswind:
North of the RWY, 75M from CL, along the whole length of the RWY;
South of the RWY, 75M from CL, and at THR RWY 25 from THR RWY 07 to 140M east of THR RWY 07



Image

Image

Watch out!

Flight Procedures
RWY 07 and 25 left hand circuit, 1.200 FT QNH

Image

Taxi procedures:
RWY 07 (TKOF):
taxi on the north side of the RWY to the HLDG position of RWY 07

RWY 07 (LDG):
after landing roll out to the second intersection (THR RWY 25), turn left, turn left again, taxi via the TWY to the first intersection, turn left, cross the RWY (check for landing ACFT), taxi on the south side of the RWY to the AD reporting office

RWY 25 (TKOF):
taxi on the north side of the first intersection, turn left, next turn right, taxi via the TWY to the second intersection, turn right, taxi to the HLDG of RWY 25

RWY 25 (LDG):
after landing roll out to the end of the RWY, taxi on the south side of the RWY to the AD reporting office.





Image

Taxi & Circuit?

Image
Image
Image
Image

Current Metars - Auto refresh

EBOS - Oostende
2020/07/04 22:20 EBOS 042220Z 24015G25KT 9999 BKN011 17/15 Q1012 NOSIG


EBAW - Antwerpen
2020/07/04 22:20 EBAW 042220Z AUTO 23011KT 200V260 3600 DZ SCT003/// OVC005/// 18/17 Q1012


EBBR - Brussel
2020/07/04 22:20 EBBR 042220Z 22012KT 9999 SCT011 BKN016 19/17 Q1013 BECMG SCT008 BKN012

Source : NOAA.GOV

Current TAFs - Auto refresh

EBOS - Oostende
2020/07/04 18:27 TAF EBOS 041710Z 0418/0524 23018KT 9999 SCT010 BKN012 TEMPO 0418/0510 4000 DZRA SCT006 BKN008 TEMPO 0506/0519 24023G36KT BECMG 0511/0513 SCT030

EBAW - Antwerpen
2020/07/04 21:28 TAF EBAW 042010Z 0421/0506 22012KT 8000 SCT008 BKN012 TEMPO 0421/0506 22015G25KT 4000 DZRA SCT005 BKN007

EBBR - Brussel
2020/07/04 18:27 TAF TAF EBBR 041706Z 0418/0524 22013KT 9999 SCT015 BKN018 BECMG 0419/0421 SCT008 BKN012 TEMPO 0419/0513 4000 DZRA SCT005 BKN007 TEMPO 0506/0519 23018G30KT BECMG 0513/0515 SCT025

Source : NOAA.GOV
Image

Webcam

Direction runway 07 :